BAW17PA EGKK-TAPA

Flight info

Callsign BAW17PA
Flight time 7h 54m
Altitude 36000
Route IMVUR1Z IMVUR N63 SAM N19 ADKIK DCT JOZMA DCT GAPLI/M082F360 DCT OMOKO DCT 48N015W 46N020W 41N030W/M082F380 35N040W 28N050W/M082F400 24N055W 19N060W DCT AMTTO DCT ANU DCT
Aircraft B772/H-SDE1E3FGHIJ3J5J6M1M2P2RWXYZ/LB1D1

Departure

Time 2026-04-07 09:35
Airport London Gatwick Airport (EGKK)

Arrival

Time 2026-04-07 17:29
Airport V. C. Bird International Airport (TAPA)
Time Latitude Longitude Altitude Speed Heading
2026-04-07 08:49 51.15556 -0.17102 210 ft 0 kts 168°
2026-04-07 09:21 51.15557 -0.17102 210 ft 1 kts 168°
2026-04-07 09:21 51.15580 -0.17109 221 ft 4 kts 168°
2026-04-07 09:21 51.15607 -0.17118 218 ft 4 kts 173°
2026-04-07 09:21 51.15629 -0.17119 215 ft 4 kts 208°
2026-04-07 09:22 51.15633 -0.17117 216 ft 2 kts 258°
2026-04-07 09:22 51.15638 -0.17079 219 ft 4 kts 258°
2026-04-07 09:22 51.15639 -0.17071 217 ft 0 kts 258°
2026-04-07 09:25 51.15633 -0.17123 220 ft 11 kts 258°
2026-04-07 09:26 51.15604 -0.17303 220 ft 18 kts 256°
2026-04-07 09:26 51.15573 -0.17423 220 ft 8 kts 213°
2026-04-07 09:26 51.15512 -0.17424 216 ft 10 kts 170°
2026-04-07 09:26 51.15447 -0.17403 222 ft 10 kts 167°
2026-04-07 09:27 51.15382 -0.17380 221 ft 10 kts 167°
2026-04-07 09:27 51.15318 -0.17375 214 ft 9 kts 205°
2026-04-07 09:27 51.15297 -0.17466 216 ft 9 kts 258°
2026-04-07 09:27 51.15284 -0.17564 214 ft 9 kts 257°
2026-04-07 09:28 51.15265 -0.17699 215 ft 17 kts 257°
2026-04-07 09:28 51.15240 -0.17879 219 ft 17 kts 257°
2026-04-07 09:28 51.15215 -0.18059 219 ft 17 kts 257°
2026-04-07 09:28 51.15192 -0.18240 218 ft 17 kts 262°
2026-04-07 09:29 51.15172 -0.18421 219 ft 17 kts 258°
2026-04-07 09:29 51.15148 -0.18599 214 ft 17 kts 257°
2026-04-07 09:29 51.15122 -0.18778 217 ft 17 kts 257°
2026-04-07 09:29 51.15098 -0.18959 218 ft 17 kts 258°
2026-04-07 09:30 51.15073 -0.19139 221 ft 17 kts 257°
2026-04-07 09:30 51.15049 -0.19319 217 ft 17 kts 258°
2026-04-07 09:30 51.15024 -0.19499 220 ft 17 kts 257°
2026-04-07 09:30 51.14999 -0.19679 219 ft 17 kts 257°
2026-04-07 09:31 51.14974 -0.19859 219 ft 17 kts 257°
2026-04-07 09:31 51.14949 -0.20038 217 ft 17 kts 257°
2026-04-07 09:31 51.14925 -0.20216 215 ft 17 kts 258°
2026-04-07 09:31 51.14901 -0.20396 219 ft 17 kts 258°
2026-04-07 09:32 51.14876 -0.20572 218 ft 15 kts 252°
2026-04-07 09:32 51.14797 -0.20676 222 ft 15 kts 211°
2026-04-07 09:32 51.14753 -0.20807 220 ft 14 kts 256°
2026-04-07 09:32 51.14732 -0.20953 219 ft 14 kts 257°
2026-04-07 09:33 51.14711 -0.21099 219 ft 14 kts 257°
2026-04-07 09:33 51.14691 -0.21246 220 ft 13 kts 257°
2026-04-07 09:33 51.14637 -0.21331 218 ft 11 kts 178°
2026-04-07 09:33 51.14565 -0.21299 217 ft 11 kts 152°
2026-04-07 09:34 51.14522 -0.21205 218 ft 11 kts 100°
2026-04-07 09:34 51.14531 -0.21086 218 ft 11 kts 77°
2026-04-07 09:34 51.14575 -0.20773 215 ft 60 kts 78°
2026-04-07 09:34 51.14725 -0.19692 220 ft 137 kts 78°
2026-04-07 09:35 51.14969 -0.17954 564 ft 170 kts 77°
2026-04-07 09:35 51.15260 -0.16107 1513 ft 176 kts 78°
2026-04-07 09:35 51.15576 -0.14216 2595 ft 178 kts 79°
2026-04-07 09:35 51.15925 -0.12284 3450 ft 190 kts 78°
2026-04-07 09:36 51.16226 -0.10172 3947 ft 208 kts 83°
2026-04-07 09:36 51.16539 -0.07849 3990 ft 220 kts 69°
2026-04-07 09:36 51.17569 -0.05953 4020 ft 237 kts 34°
2026-04-07 09:36 51.19152 -0.05260 4006 ft 241 kts
2026-04-07 09:37 51.20825 -0.05749 3964 ft 250 kts 335°
2026-04-07 09:37 51.22135 -0.07465 3997 ft 245 kts 300°
2026-04-07 09:37 51.22641 -0.09999 4428 ft 241 kts 270°
2026-04-07 09:37 51.22519 -0.12643 5207 ft 238 kts 258°
2026-04-07 09:38 51.22226 -0.15192 6048 ft 237 kts 257°
2026-04-07 09:38 51.21906 -0.17788 6849 ft 240 kts 257°
2026-04-07 09:38 51.21580 -0.20401 7600 ft 242 kts 257°
2026-04-07 09:38 51.21252 -0.23091 8155 ft 256 kts 257°
2026-04-07 09:39 51.20907 -0.26004 8550 ft 274 kts 257°
2026-04-07 09:39 51.20552 -0.29045 9206 ft 283 kts 257°
2026-04-07 09:39 51.20191 -0.32152 9976 ft 287 kts 257°
2026-04-07 09:39 51.19821 -0.35292 10728 ft 289 kts 256°
2026-04-07 09:40 51.19416 -0.38465 11326 ft 299 kts 255°
2026-04-07 09:40 51.18979 -0.41797 11507 ft 323 kts 256°
2026-04-07 09:40 51.18504 -0.45428 11685 ft 347 kts 256°
2026-04-07 09:40 51.18005 -0.49261 12169 ft 360 kts 256°
2026-04-07 09:41 51.17483 -0.53204 12244 ft 365 kts 253°
2026-04-07 09:41 51.16678 -0.57044 12732 ft 366 kts 245°
2026-04-07 09:41 51.15663 -0.60770 13677 ft 367 kts 243°
2026-04-07 09:41 51.14605 -0.64477 14499 ft 369 kts 243°
2026-04-07 09:42 51.13547 -0.68221 15244 ft 373 kts 243°
2026-04-07 09:42 51.12492 -0.72026 15976 ft 377 kts 244°
2026-04-07 09:42 51.11443 -0.75864 16685 ft 381 kts 244°
2026-04-07 09:42 51.10402 -0.79707 17367 ft 384 kts 244°
2026-04-07 09:43 51.09343 -0.83636 18056 ft 388 kts 244°
2026-04-07 09:43 51.08278 -0.87592 18702 ft 391 kts 244°
2026-04-07 09:43 51.07202 -0.91584 19293 ft 394 kts 244°
2026-04-07 09:43 51.06117 -0.95595 19869 ft 396 kts 244°
2026-04-07 09:44 51.05022 -0.99635 20443 ft 399 kts 244°
2026-04-07 09:44 51.03920 -1.03691 21021 ft 401 kts 245°
2026-04-07 09:44 51.02808 -1.07775 21562 ft 404 kts 245°
2026-04-07 09:44 51.01704 -1.11828 22087 ft 407 kts 245°
2026-04-07 09:45 51.00578 -1.15962 22606 ft 410 kts 245°
2026-04-07 09:45 50.99439 -1.20132 23137 ft 413 kts 245°
2026-04-07 09:45 50.98292 -1.24327 23670 ft 416 kts 245°
2026-04-07 09:45 50.97133 -1.28555 24119 ft 419 kts 245°
2026-04-07 09:46 50.96004 -1.32827 24552 ft 422 kts 248°
2026-04-07 09:46 50.95108 -1.37271 24985 ft 425 kts 254°
2026-04-07 09:46 50.94491 -1.41878 25406 ft 428 kts 257°
2026-04-07 09:46 50.93926 -1.46467 25822 ft 431 kts 257°
2026-04-07 09:47 50.93351 -1.51137 26239 ft 434 kts 257°
2026-04-07 09:47 50.92763 -1.55846 26661 ft 436 kts 257°
2026-04-07 09:47 50.92164 -1.60573 27077 ft 438 kts 257°
2026-04-07 09:47 50.91555 -1.65322 27461 ft 441 kts 257°
2026-04-07 09:48 50.90940 -1.70084 27872 ft 443 kts 256°
2026-04-07 09:48 50.90316 -1.74882 28281 ft 445 kts 256°
2026-04-07 09:48 50.89688 -1.79696 28681 ft 448 kts 256°
2026-04-07 09:48 50.89055 -1.84536 29075 ft 450 kts 256°
2026-04-07 09:49 50.88425 -1.89338 29455 ft 452 kts 256°
2026-04-07 09:49 50.87784 -1.94218 29844 ft 454 kts 256°
2026-04-07 09:49 50.87137 -1.99122 30216 ft 456 kts 256°
2026-04-07 09:49 50.86485 -2.04051 30505 ft 458 kts 256°
2026-04-07 09:50 50.85829 -2.09001 30754 ft 461 kts 256°
2026-04-07 09:50 50.85168 -2.13978 31029 ft 463 kts 256°
2026-04-07 09:50 50.84506 -2.18957 31384 ft 462 kts 256°
2026-04-07 09:50 50.83843 -2.23925 31796 ft 460 kts 256°
2026-04-07 09:51 50.83181 -2.28872 32184 ft 459 kts 256°
2026-04-07 09:51 50.82528 -2.33737 32564 ft 458 kts 255°
2026-04-07 09:51 50.81864 -2.38662 32934 ft 458 kts 255°
2026-04-07 09:51 50.81199 -2.43580 33297 ft 457 kts 255°
2026-04-07 09:52 50.80533 -2.48490 33695 ft 456 kts 255°
2026-04-07 09:52 50.79866 -2.53382 34058 ft 455 kts 255°
2026-04-07 09:52 50.78622 -2.63288 34164 ft 462 kts 256°
2026-04-07 09:53 50.77502 -2.73202 34149 ft 454 kts 257°
2026-04-07 09:53 50.76387 -2.82930 34157 ft 453 kts 256°
2026-04-07 09:54 50.75238 -2.92707 34161 ft 453 kts 256°
2026-04-07 09:54 50.74073 -3.02477 34151 ft 453 kts 256°
2026-04-07 09:55 50.72899 -3.12242 34138 ft 453 kts 256°
2026-04-07 09:55 50.71728 -3.21928 34137 ft 452 kts 256°
2026-04-07 09:56 50.70540 -3.31661 34128 ft 452 kts 256°
2026-04-07 09:56 50.69347 -3.41378 34132 ft 451 kts 256°
2026-04-07 09:57 50.68147 -3.51077 34129 ft 450 kts 256°
2026-04-07 09:57 50.66941 -3.60767 34123 ft 450 kts 255°
2026-04-07 09:58 50.65735 -3.70379 34127 ft 450 kts 255°
2026-04-07 09:58 50.64516 -3.80038 34135 ft 449 kts 255°
2026-04-07 09:59 50.63290 -3.89689 34124 ft 449 kts 255°
2026-04-07 09:59 50.62256 -3.97694 34125 ft 449 kts 255°
2026-04-07 10:00 50.60733 -4.08868 34108 ft 449 kts 254°
2026-04-07 10:00 50.59402 -4.18479 34099 ft 450 kts 254°
2026-04-07 10:01 50.58295 -4.26467 34087 ft 450 kts 254°
2026-04-07 10:01 50.56960 -4.36085 34093 ft 450 kts 254°
2026-04-07 10:02 50.55400 -4.47255 34082 ft 450 kts 253°
2026-04-07 10:02 50.54270 -4.55292 34068 ft 449 kts 253°
2026-04-07 10:03 50.52925 -4.64809 34047 ft 448 kts 253°
2026-04-07 10:03 50.51566 -4.74354 34039 ft 448 kts 253°
2026-04-07 10:04 50.49977 -4.85437 34025 ft 447 kts 253°
2026-04-07 10:04 50.48826 -4.93416 34029 ft 447 kts 252°
2026-04-07 10:05 50.47455 -5.02870 34014 ft 447 kts 252°
2026-04-07 10:05 50.46066 -5.12390 34015 ft 447 kts 252°
2026-04-07 10:06 50.44670 -5.21899 34019 ft 448 kts 252°
2026-04-07 10:06 50.43263 -5.31419 34033 ft 448 kts 252°
2026-04-07 10:07 50.41848 -5.40939 34031 ft 449 kts 252°
2026-04-07 10:07 50.40433 -5.50400 34030 ft 449 kts 252°
2026-04-07 10:08 50.39000 -5.59927 34029 ft 449 kts 251°
2026-04-07 10:08 50.37558 -5.69456 34026 ft 449 kts 251°
2026-04-07 10:09 50.36108 -5.78980 34024 ft 450 kts 251°
2026-04-07 10:09 50.34660 -5.88430 34027 ft 450 kts 251°
2026-04-07 10:10 50.33194 -5.97945 34023 ft 449 kts 251°
2026-04-07 10:10 50.31722 -6.07447 34020 ft 449 kts 251°
2026-04-07 10:11 50.30243 -6.16933 34019 ft 449 kts 251°
2026-04-07 10:11 50.28757 -6.26406 34011 ft 448 kts 251°
2026-04-07 10:12 50.27276 -6.35798 34019 ft 448 kts 251°
2026-04-07 10:12 50.25776 -6.45254 34007 ft 448 kts 251°
2026-04-07 10:13 50.24268 -6.54704 34004 ft 448 kts 251°
2026-04-07 10:13 50.22752 -6.64154 34001 ft 449 kts 251°
2026-04-07 10:14 50.21236 -6.73546 33998 ft 449 kts 251°
2026-04-07 10:14 50.19701 -6.83007 34001 ft 450 kts 251°
2026-04-07 10:15 50.18155 -6.92478 33998 ft 451 kts 250°
2026-04-07 10:15 50.16599 -7.01960 34000 ft 452 kts 250°
2026-04-07 10:16 50.15043 -7.11391 33998 ft 453 kts 250°
2026-04-07 10:16 50.13464 -7.20905 34000 ft 454 kts 250°
2026-04-07 10:17 50.11875 -7.30426 34002 ft 454 kts 250°
2026-04-07 10:17 50.10277 -7.39950 33998 ft 455 kts 250°
2026-04-07 10:18 50.08680 -7.49416 33996 ft 455 kts 250°
2026-04-07 10:18 50.07066 -7.58935 34002 ft 455 kts 250°
2026-04-07 10:19 50.04630 -7.73197 34000 ft 454 kts 250°
2026-04-07 10:20 50.03000 -7.82680 33998 ft 453 kts 250°
2026-04-07 10:20 50.01377 -7.92074 33996 ft 453 kts 250°
2026-04-07 10:21 49.99649 -8.01452 33999 ft 449 kts 245°
2026-04-07 10:21 49.97287 -8.10359 33998 ft 445 kts 243°
2026-04-07 10:22 49.94874 -8.19206 33985 ft 444 kts 243°
2026-04-07 10:22 49.92476 -8.28043 33991 ft 444 kts 243°
2026-04-07 10:23 49.90101 -8.36816 33983 ft 444 kts 242°
2026-04-07 10:23 49.87708 -8.45639 33984 ft 444 kts 242°
2026-04-07 10:24 49.85308 -8.54454 33978 ft 444 kts 242°
2026-04-07 10:24 49.82902 -8.63261 33987 ft 444 kts 242°
2026-04-07 10:25 49.80483 -8.72077 33979 ft 445 kts 242°
2026-04-07 10:25 49.78071 -8.80836 33976 ft 445 kts 242°
2026-04-07 10:26 49.75636 -8.89645 33977 ft 445 kts 242°
2026-04-07 10:26 49.73196 -8.98442 33984 ft 445 kts 242°
2026-04-07 10:27 49.70748 -9.07231 33985 ft 445 kts 242°
2026-04-07 10:27 49.68312 -9.15946 33986 ft 445 kts 241°
2026-04-07 10:28 49.65853 -9.24710 33986 ft 445 kts 241°
2026-04-07 10:28 49.63388 -9.33465 33983 ft 445 kts 241°
2026-04-07 10:29 49.60917 -9.42210 33988 ft 445 kts 241°
2026-04-07 10:29 49.58454 -9.50889 33983 ft 445 kts 241°
2026-04-07 10:30 49.55970 -9.59616 33986 ft 445 kts 241°
2026-04-07 10:30 49.53479 -9.68333 33985 ft 445 kts 240°
2026-04-07 10:31 49.50981 -9.77045 33981 ft 445 kts 240°
2026-04-07 10:31 49.48476 -9.85745 33979 ft 445 kts 240°
2026-04-07 10:32 49.45981 -9.94382 33983 ft 445 kts 240°
2026-04-07 10:32 49.43460 -10.03079 33973 ft 445 kts 240°
2026-04-07 10:33 49.40935 -10.11758 33974 ft 445 kts 240°
2026-04-07 10:33 49.38406 -10.20419 33971 ft 445 kts 240°
2026-04-07 10:34 49.35872 -10.29067 33970 ft 444 kts 240°
2026-04-07 10:34 49.33352 -10.37635 33970 ft 443 kts 239°
2026-04-07 10:35 49.30813 -10.46238 33976 ft 443 kts 239°
2026-04-07 10:35 49.28270 -10.54824 33960 ft 443 kts 239°
2026-04-07 10:36 49.25720 -10.63402 33965 ft 442 kts 239°
2026-04-07 10:36 49.23185 -10.71901 33973 ft 442 kts 239°
2026-04-07 10:37 49.20626 -10.80450 33967 ft 442 kts 239°
2026-04-07 10:37 49.18060 -10.88991 33969 ft 442 kts 239°
2026-04-07 10:38 49.15488 -10.97525 33969 ft 442 kts 239°
2026-04-07 10:38 49.12924 -11.06001 33975 ft 443 kts 239°
2026-04-07 10:39 49.10334 -11.14533 33970 ft 443 kts 239°
2026-04-07 10:39 49.07734 -11.23070 33966 ft 444 kts 239°
2026-04-07 10:40 49.05122 -11.31614 33965 ft 445 kts 239°
2026-04-07 10:40 49.02520 -11.40099 33967 ft 445 kts 239°
2026-04-07 10:41 48.99889 -11.48650 33961 ft 446 kts 239°
2026-04-07 10:41 48.97249 -11.57201 33962 ft 447 kts 238°
2026-04-07 10:42 48.94599 -11.65755 33963 ft 447 kts 238°
2026-04-07 10:42 48.91956 -11.74256 33964 ft 448 kts 238°
2026-04-07 10:43 48.89289 -11.82807 33965 ft 448 kts 238°
2026-04-07 10:43 48.86614 -11.91356 33963 ft 448 kts 238°
2026-04-07 10:44 48.83939 -11.99903 33968 ft 448 kts 239°
2026-04-07 10:44 48.81565 -12.08689 33966 ft 450 kts 242°
2026-04-07 10:45 48.79275 -12.17460 33970 ft 450 kts 242°
2026-04-07 10:45 48.76961 -12.26273 33967 ft 450 kts 241°
2026-04-07 10:46 48.74631 -12.35060 33967 ft 449 kts 241°
2026-04-07 10:46 48.72291 -12.43831 33965 ft 449 kts 241°
2026-04-07 10:47 48.69962 -12.52530 33973 ft 448 kts 241°
2026-04-07 10:47 48.67612 -12.61270 33975 ft 448 kts 241°
2026-04-07 10:48 48.65257 -12.70002 33976 ft 448 kts 241°
2026-04-07 10:48 48.62896 -12.78718 33980 ft 448 kts 241°
2026-04-07 10:49 48.60544 -12.87372 33982 ft 448 kts 241°
2026-04-07 10:49 48.58166 -12.96090 33970 ft 449 kts 241°
2026-04-07 10:50 48.55780 -13.04805 33981 ft 449 kts 241°
2026-04-07 10:50 48.53388 -13.13511 33991 ft 449 kts 241°
2026-04-07 10:51 48.50991 -13.22203 33991 ft 449 kts 242°
2026-04-07 10:51 48.48605 -13.30820 33997 ft 448 kts 242°
2026-04-07 10:52 48.46199 -13.39482 34005 ft 448 kts 242°
2026-04-07 10:52 48.43789 -13.48126 34007 ft 448 kts 242°
2026-04-07 10:53 48.41386 -13.56710 34004 ft 447 kts 242°
2026-04-07 10:53 48.38971 -13.65310 34010 ft 446 kts 242°
2026-04-07 10:54 48.36552 -13.73892 34009 ft 446 kts 242°
2026-04-07 10:54 48.34127 -13.82463 34014 ft 445 kts 242°
2026-04-07 10:55 48.31717 -13.90954 34018 ft 445 kts 242°
2026-04-07 10:55 48.29280 -13.99504 34031 ft 445 kts 242°
2026-04-07 10:56 48.26835 -14.08057 34036 ft 446 kts 242°
2026-04-07 10:56 48.24382 -14.16607 34029 ft 446 kts 242°
2026-04-07 10:57 48.21920 -14.25157 34042 ft 447 kts 242°
2026-04-07 10:57 48.19466 -14.33649 34049 ft 447 kts 242°
2026-04-07 10:58 48.16982 -14.42213 34047 ft 448 kts 242°
2026-04-07 10:58 48.14490 -14.50779 34042 ft 449 kts 242°
2026-04-07 10:59 48.11987 -14.59351 34048 ft 450 kts 242°
2026-04-07 10:59 48.09490 -14.67872 34058 ft 450 kts 242°
2026-04-07 11:00 48.06969 -14.76446 34062 ft 450 kts 242°
2026-04-07 11:00 48.04443 -14.85007 34061 ft 450 kts 243°
2026-04-07 11:01 48.01910 -14.93569 34064 ft 450 kts 243°
2026-04-07 11:01 47.99314 -15.02007 34069 ft 449 kts 239°
2026-04-07 11:02 47.96331 -15.10175 34076 ft 449 kts 238°
2026-04-07 11:02 47.93314 -15.18332 34075 ft 449 kts 238°
2026-04-07 11:03 47.90298 -15.26503 34075 ft 450 kts 239°
2026-04-07 11:03 47.87280 -15.34687 34084 ft 451 kts 239°
2026-04-07 11:04 47.84272 -15.42832 34090 ft 452 kts 239°
2026-04-07 11:04 47.81231 -15.51040 34089 ft 454 kts 239°
2026-04-07 11:05 47.78177 -15.59259 34094 ft 454 kts 239°
2026-04-07 11:05 47.75113 -15.67477 34097 ft 455 kts 239°
2026-04-07 11:06 47.72061 -15.75639 34097 ft 455 kts 239°
2026-04-07 11:06 47.68981 -15.83851 34102 ft 455 kts 239°
2026-04-07 11:07 47.65891 -15.92062 34100 ft 456 kts 239°
2026-04-07 11:07 47.62789 -16.00287 34106 ft 458 kts 239°
2026-04-07 11:08 47.59690 -16.08470 34107 ft 459 kts 240°
2026-04-07 11:08 47.56551 -16.16733 34116 ft 461 kts 240°
2026-04-07 11:09 47.53396 -16.25018 34118 ft 463 kts 240°
2026-04-07 11:09 47.50221 -16.33325 34126 ft 465 kts 240°
2026-04-07 11:10 47.47047 -16.41607 34126 ft 467 kts 240°
2026-04-07 11:10 47.43834 -16.49962 34130 ft 469 kts 241°
2026-04-07 11:11 47.40604 -16.58336 34133 ft 470 kts 241°
2026-04-07 11:11 47.37358 -16.66728 34131 ft 471 kts 242°
2026-04-07 11:12 47.34098 -16.75128 34135 ft 472 kts 242°
2026-04-07 11:12 47.30850 -16.83475 34137 ft 473 kts 242°
2026-04-07 11:13 47.27565 -16.91884 34142 ft 474 kts 242°
2026-04-07 11:13 47.24269 -17.00299 34143 ft 475 kts 243°
2026-04-07 11:14 47.20982 -17.08669 34150 ft 476 kts 243°
2026-04-07 11:14 47.17651 -17.17116 34151 ft 478 kts 243°
2026-04-07 11:15 47.14299 -17.25583 34156 ft 480 kts 243°
2026-04-07 11:15 47.10930 -17.34076 34158 ft 482 kts 243°
2026-04-07 11:16 47.07540 -17.42595 34159 ft 484 kts 243°
2026-04-07 11:16 47.04155 -17.51076 34166 ft 486 kts 243°
2026-04-07 11:17 47.00733 -17.59622 34167 ft 487 kts 243°
2026-04-07 11:17 46.97420 -17.67869 34170 ft 488 kts 244°
2026-04-07 11:18 46.93967 -17.76441 34172 ft 489 kts 244°
2026-04-07 11:18 46.90524 -17.84959 34176 ft 490 kts 244°
2026-04-07 11:19 46.87041 -17.93551 34178 ft 491 kts 244°
2026-04-07 11:19 46.83545 -18.02146 34174 ft 493 kts 245°
2026-04-07 11:20 46.80037 -18.10745 34188 ft 493 kts 245°
2026-04-07 11:20 46.76516 -18.19348 34187 ft 494 kts 245°
2026-04-07 11:21 46.73006 -18.27897 34192 ft 495 kts 245°
2026-04-07 11:21 46.69464 -18.36499 34185 ft 495 kts 246°
2026-04-07 11:22 46.65911 -18.45098 34193 ft 496 kts 246°
2026-04-07 11:22 46.62370 -18.53645 34201 ft 497 kts 246°
2026-04-07 11:23 46.58793 -18.62249 34202 ft 497 kts 246°
2026-04-07 11:23 46.55206 -18.70853 34202 ft 498 kts 246°
2026-04-07 11:24 46.51602 -18.79468 34205 ft 499 kts 247°
2026-04-07 11:24 46.47969 -18.88137 34221 ft 508 kts 247°
2026-04-07 11:25 46.42381 -19.01424 34230 ft 524 kts 246°
2026-04-07 11:25 46.38551 -19.10469 34219 ft 528 kts 246°
2026-04-07 11:26 46.34697 -19.19535 34223 ft 529 kts 246°
2026-04-07 11:26 46.30835 -19.28599 34231 ft 529 kts 246°
2026-04-07 11:27 46.26999 -19.37575 34227 ft 527 kts 246°
2026-04-07 11:27 46.23143 -19.46574 34228 ft 525 kts 246°
2026-04-07 11:28 46.19298 -19.55518 34229 ft 523 kts 246°
2026-04-07 11:28 46.15462 -19.64412 34232 ft 521 kts 246°
2026-04-07 11:29 46.11660 -19.73203 34237 ft 519 kts 246°
2026-04-07 11:29 46.07842 -19.82003 34243 ft 517 kts 246°
2026-04-07 11:30 46.04029 -19.90766 34247 ft 516 kts 246°
2026-04-07 11:30 46.00220 -19.99493 34247 ft 514 kts 246°
2026-04-07 11:31 45.96484 -20.08235 34251 ft 512 kts 248°
2026-04-07 11:31 45.92848 -20.16944 34263 ft 511 kts 248°
2026-04-07 11:32 45.89184 -20.25701 34254 ft 512 kts 248°
2026-04-07 11:32 45.85500 -20.34438 34255 ft 512 kts 248°
2026-04-07 11:33 45.81799 -20.43164 34262 ft 512 kts 248°
2026-04-07 11:33 45.78113 -20.51825 34277 ft 513 kts 248°
2026-04-07 11:34 45.74390 -20.60547 34274 ft 513 kts 248°
2026-04-07 11:34 45.70661 -20.69256 34273 ft 513 kts 248°
2026-04-07 11:35 45.66924 -20.77957 34274 ft 513 kts 248°
2026-04-07 11:35 45.63208 -20.86586 34273 ft 513 kts 248°
2026-04-07 11:36 45.59460 -20.95260 34281 ft 513 kts 248°
2026-04-07 11:36 45.55709 -21.03913 34282 ft 512 kts 248°
2026-04-07 11:37 45.51957 -21.12541 34283 ft 511 kts 248°
2026-04-07 11:37 45.48231 -21.21083 34289 ft 510 kts 248°
2026-04-07 11:38 45.44484 -21.29650 34288 ft 509 kts 248°
2026-04-07 11:38 45.40737 -21.38190 34291 ft 508 kts 248°
2026-04-07 11:39 45.36993 -21.46699 34303 ft 507 kts 248°
2026-04-07 11:39 45.33275 -21.55121 34295 ft 506 kts 248°
2026-04-07 11:40 45.29532 -21.63578 34303 ft 505 kts 248°
2026-04-07 11:40 45.25791 -21.72002 34300 ft 504 kts 248°
2026-04-07 11:41 45.22052 -21.80398 34304 ft 503 kts 248°
2026-04-07 11:41 45.18336 -21.88719 34304 ft 503 kts 248°
2026-04-07 11:42 45.14590 -21.97081 34312 ft 502 kts 248°
2026-04-07 11:42 45.10844 -22.05419 34315 ft 502 kts 248°
2026-04-07 11:43 45.07097 -22.13735 34318 ft 501 kts 248°
2026-04-07 11:43 45.03340 -22.22047 34319 ft 501 kts 248°
2026-04-07 11:44 44.99608 -22.30282 34324 ft 501 kts 248°
2026-04-07 11:44 44.95849 -22.38552 34323 ft 500 kts 248°
2026-04-07 11:45 44.92085 -22.46808 34322 ft 500 kts 248°
2026-04-07 11:45 44.88322 -22.55037 34328 ft 499 kts 248°
2026-04-07 11:46 44.84581 -22.63198 34327 ft 499 kts 247°
2026-04-07 11:46 44.80811 -22.71396 34330 ft 498 kts 247°
2026-04-07 11:47 44.77040 -22.79573 34345 ft 498 kts 247°
2026-04-07 11:47 44.73268 -22.87732 34339 ft 497 kts 247°
2026-04-07 11:48 44.69492 -22.95874 34335 ft 497 kts 247°
2026-04-07 11:48 44.65739 -23.03944 34336 ft 496 kts 247°
2026-04-07 11:49 44.61959 -23.12047 34339 ft 496 kts 247°
2026-04-07 11:49 44.58175 -23.20140 34342 ft 496 kts 247°
2026-04-07 11:50 44.54416 -23.28153 34348 ft 495 kts 247°
2026-04-07 11:50 44.50627 -23.36211 34352 ft 495 kts 246°
2026-04-07 11:51 44.46835 -23.44252 34342 ft 495 kts 246°
2026-04-07 11:51 44.43038 -23.52279 34346 ft 494 kts 246°
2026-04-07 11:52 44.39236 -23.60296 34350 ft 494 kts 246°
2026-04-07 11:52 44.35457 -23.68244 34361 ft 494 kts 246°
2026-04-07 11:53 44.31646 -23.76235 34359 ft 494 kts 246°
2026-04-07 11:53 44.27828 -23.84219 34358 ft 494 kts 246°
2026-04-07 11:54 44.24006 -23.92189 34362 ft 494 kts 246°
2026-04-07 11:54 44.20206 -24.00092 34365 ft 494 kts 245°
2026-04-07 11:55 44.16375 -24.08039 34366 ft 494 kts 245°
2026-04-07 11:55 44.12537 -24.15977 34367 ft 494 kts 245°
2026-04-07 11:56 44.08698 -24.23895 34370 ft 494 kts 245°
2026-04-07 11:56 44.04852 -24.31807 34364 ft 494 kts 245°
2026-04-07 11:57 44.01026 -24.39657 34368 ft 494 kts 245°
2026-04-07 11:57 43.97168 -24.47551 34370 ft 494 kts 245°
2026-04-07 11:58 43.93307 -24.55430 34372 ft 494 kts 245°
2026-04-07 11:58 43.89436 -24.63307 34373 ft 494 kts 244°
2026-04-07 11:59 43.85585 -24.71122 34377 ft 494 kts 244°
2026-04-07 11:59 43.81703 -24.78979 34387 ft 494 kts 244°
2026-04-07 12:00 43.77813 -24.86833 34384 ft 495 kts 244°
2026-04-07 12:00 43.73918 -24.94674 34379 ft 495 kts 244°
2026-04-07 12:01 43.70045 -25.02450 34380 ft 494 kts 244°
2026-04-07 12:01 43.66140 -25.10270 34380 ft 494 kts 244°
2026-04-07 12:02 43.62234 -25.18073 34382 ft 494 kts 243°
2026-04-07 12:02 43.58320 -25.25869 34385 ft 494 kts 243°
2026-04-07 12:03 43.54427 -25.33603 34395 ft 494 kts 243°
2026-04-07 12:03 43.50504 -25.41376 34390 ft 494 kts 243°
2026-04-07 12:04 43.46574 -25.49143 34385 ft 494 kts 243°
2026-04-07 12:04 43.42642 -25.56892 34387 ft 494 kts 243°
2026-04-07 12:05 43.38706 -25.64630 34394 ft 494 kts 243°
2026-04-07 12:05 43.34791 -25.72306 34389 ft 494 kts 243°
2026-04-07 12:06 43.30845 -25.80023 34398 ft 494 kts 243°
2026-04-07 12:06 43.26891 -25.87737 34399 ft 494 kts 242°
2026-04-07 12:07 43.22959 -25.95387 34395 ft 494 kts 242°
2026-04-07 12:07 43.18994 -26.03080 34399 ft 494 kts 242°
2026-04-07 12:08 43.15024 -26.10762 34399 ft 494 kts 242°
2026-04-07 12:08 43.11046 -26.18441 34400 ft 494 kts 242°
2026-04-07 12:09 43.07089 -26.26060 34405 ft 494 kts 242°
2026-04-07 12:09 43.03101 -26.33720 34409 ft 494 kts 242°
2026-04-07 12:10 42.99106 -26.41372 34408 ft 495 kts 242°
2026-04-07 12:10 42.95106 -26.49014 34403 ft 495 kts 242°
2026-04-07 12:11 42.91099 -26.56650 34418 ft 495 kts 241°
2026-04-07 12:11 42.87112 -26.64228 34412 ft 495 kts 241°
2026-04-07 12:12 42.83092 -26.71850 34414 ft 495 kts 241°
2026-04-07 12:12 42.79071 -26.79453 34416 ft 495 kts 241°
2026-04-07 12:13 42.75046 -26.87046 34421 ft 495 kts 241°
2026-04-07 12:13 42.71012 -26.94635 34429 ft 495 kts 241°
2026-04-07 12:14 42.66999 -27.02167 34416 ft 495 kts 241°
2026-04-07 12:14 42.62958 -27.09731 34420 ft 495 kts 241°
2026-04-07 12:15 42.58914 -27.17282 34426 ft 494 kts 240°
2026-04-07 12:15 42.54895 -27.24769 34426 ft 494 kts 240°
2026-04-07 12:16 42.50844 -27.32295 34426 ft 494 kts 240°
2026-04-07 12:16 42.46787 -27.39813 34429 ft 494 kts 240°
2026-04-07 12:17 42.42725 -27.47323 34430 ft 494 kts 240°
2026-04-07 12:17 42.38690 -27.54764 34434 ft 494 kts 240°
2026-04-07 12:18 42.34620 -27.62250 34435 ft 494 kts 240°
2026-04-07 12:18 42.30544 -27.69730 34442 ft 494 kts 240°
2026-04-07 12:19 42.26457 -27.77211 34437 ft 495 kts 240°
2026-04-07 12:19 42.22388 -27.84640 34437 ft 495 kts 239°
2026-04-07 12:20 42.18290 -27.92102 34436 ft 495 kts 239°
2026-04-07 12:20 42.14184 -27.99562 34441 ft 495 kts 239°
2026-04-07 12:21 42.10074 -28.07013 34440 ft 496 kts 239°
2026-04-07 12:21 42.05953 -28.14461 34440 ft 496 kts 239°
2026-04-07 12:22 42.01853 -28.21856 34450 ft 496 kts 239°
2026-04-07 12:22 41.97722 -28.29287 34458 ft 496 kts 239°
2026-04-07 12:23 41.93581 -28.36719 34446 ft 497 kts 239°
2026-04-07 12:23 41.89429 -28.44151 34447 ft 497 kts 239°
2026-04-07 12:24 41.85303 -28.51518 34455 ft 497 kts 238°
2026-04-07 12:24 41.81140 -28.58935 34456 ft 498 kts 238°
2026-04-07 12:25 41.76969 -28.66348 34459 ft 498 kts 238°
2026-04-07 12:25 41.72792 -28.73751 34465 ft 498 kts 238°
2026-04-07 12:26 41.68637 -28.81100 34462 ft 499 kts 238°
2026-04-07 12:26 41.64443 -28.88499 34464 ft 499 kts 238°
2026-04-07 12:27 41.60246 -28.95885 34478 ft 499 kts 238°
2026-04-07 12:27 41.56038 -29.03273 34458 ft 500 kts 238°
2026-04-07 12:28 41.51826 -29.10650 34473 ft 500 kts 238°
2026-04-07 12:29 41.45523 -29.21656 34473 ft 500 kts 238°
2026-04-07 12:29 41.41294 -29.29018 34472 ft 500 kts 237°
2026-04-07 12:30 41.37062 -29.36368 34481 ft 500 kts 237°
2026-04-07 12:30 41.32826 -29.43706 34485 ft 500 kts 237°
2026-04-07 12:31 41.28613 -29.50987 34484 ft 500 kts 237°
2026-04-07 12:31 41.24368 -29.58308 34487 ft 500 kts 237°
2026-04-07 12:32 41.20120 -29.65615 34489 ft 499 kts 237°
2026-04-07 12:32 41.15870 -29.72908 34489 ft 499 kts 237°
2026-04-07 12:33 41.11645 -29.80143 34494 ft 499 kts 237°
2026-04-07 12:33 41.07392 -29.87409 34491 ft 499 kts 237°
2026-04-07 12:34 41.03136 -29.94664 34494 ft 498 kts 237°
2026-04-07 12:34 40.98943 -30.01957 34503 ft 496 kts 240°
2026-04-07 12:34 40.97013 -30.05679 34640 ft 498 kts 240°
2026-04-07 12:35 40.95080 -30.09464 34952 ft 495 kts 240°
2026-04-07 12:35 40.93166 -30.13230 35304 ft 492 kts 240°
2026-04-07 12:35 40.91258 -30.16979 35621 ft 491 kts 240°
2026-04-07 12:35 40.89351 -30.20716 35875 ft 491 kts 240°
2026-04-07 12:36 40.87437 -30.24450 36122 ft 490 kts 240°
2026-04-07 12:36 40.85522 -30.28171 36379 ft 490 kts 240°
2026-04-07 12:36 40.83597 -30.31905 36446 ft 493 kts 240°
2026-04-07 12:37 40.79747 -30.39353 36498 ft 495 kts 240°
2026-04-07 12:37 40.75883 -30.46794 36497 ft 488 kts 240°
2026-04-07 12:38 40.72049 -30.54168 36503 ft 486 kts 240°
2026-04-07 12:38 40.68225 -30.61510 36507 ft 486 kts 240°
2026-04-07 12:39 40.64397 -30.68844 36515 ft 486 kts 239°
2026-04-07 12:39 40.60584 -30.76132 36511 ft 487 kts 239°
2026-04-07 12:40 40.57383 -30.82235 36515 ft 488 kts 239°
2026-04-07 12:40 40.52869 -30.90820 36515 ft 489 kts 239°
2026-04-07 12:41 40.48995 -30.98170 36520 ft 490 kts 239°
2026-04-07 12:41 40.45138 -31.05471 36519 ft 490 kts 239°
2026-04-07 12:42 40.41246 -31.12820 36519 ft 490 kts 239°
2026-04-07 12:42 40.37349 -31.20161 36519 ft 490 kts 239°
2026-04-07 12:43 40.33446 -31.27495 36519 ft 490 kts 239°
2026-04-07 12:43 40.29567 -31.34768 36522 ft 490 kts 239°
2026-04-07 12:44 40.25659 -31.42078 36524 ft 490 kts 239°
2026-04-07 12:44 40.21747 -31.49380 36530 ft 490 kts 239°
2026-04-07 12:45 40.17834 -31.56665 36526 ft 490 kts 239°
2026-04-07 12:45 40.13944 -31.63893 36531 ft 489 kts 239°
2026-04-07 12:46 40.10022 -31.71162 36530 ft 489 kts 239°
2026-04-07 12:46 40.06098 -31.78418 36527 ft 489 kts 239°
2026-04-07 12:47 40.02834 -31.84440 36544 ft 489 kts 238°
2026-04-07 12:47 39.98904 -31.91678 36541 ft 489 kts 238°
2026-04-07 12:48 39.94331 -32.00077 36537 ft 489 kts 238°
2026-04-07 12:48 39.90395 -32.07289 36537 ft 488 kts 238°
2026-04-07 12:49 39.87121 -32.13276 36539 ft 488 kts 238°
2026-04-07 12:49 39.83180 -32.20465 36540 ft 488 kts 238°
2026-04-07 12:50 39.78597 -32.28808 36541 ft 488 kts 238°
2026-04-07 12:50 39.75294 -32.34807 36546 ft 487 kts 238°
2026-04-07 12:51 39.71368 -32.41920 36545 ft 487 kts 238°
2026-04-07 12:51 39.67417 -32.49065 36542 ft 487 kts 238°
2026-04-07 12:52 39.63463 -32.56198 36546 ft 487 kts 238°
2026-04-07 12:52 39.59505 -32.63323 36551 ft 486 kts 238°
2026-04-07 12:53 39.55575 -32.70382 36549 ft 486 kts 238°
2026-04-07 12:53 39.51612 -32.77484 36548 ft 486 kts 238°
2026-04-07 12:54 39.47648 -32.84573 36550 ft 486 kts 238°
2026-04-07 12:54 39.43679 -32.91653 36553 ft 486 kts 238°
2026-04-07 12:55 39.39710 -32.98719 36555 ft 486 kts 238°
2026-04-07 12:55 39.35763 -33.05729 36558 ft 485 kts 238°
2026-04-07 12:56 39.31788 -33.12774 36555 ft 485 kts 238°
2026-04-07 12:56 39.27811 -33.19808 36556 ft 485 kts 238°
2026-04-07 12:57 39.23833 -33.26827 36555 ft 484 kts 238°
2026-04-07 12:57 39.19853 -33.33835 36557 ft 484 kts 238°
2026-04-07 12:58 39.15899 -33.40782 36558 ft 484 kts 238°
2026-04-07 12:58 39.11916 -33.47765 36562 ft 483 kts 238°
2026-04-07 12:59 39.07933 -33.54732 36561 ft 483 kts 238°
2026-04-07 12:59 39.03951 -33.61683 36562 ft 482 kts 238°
2026-04-07 13:00 38.99996 -33.68571 36563 ft 482 kts 238°
2026-04-07 13:00 38.96011 -33.75496 36561 ft 482 kts 238°
2026-04-07 13:01 38.92026 -33.82408 36566 ft 481 kts 238°
2026-04-07 13:01 38.88040 -33.89305 36562 ft 481 kts 238°
2026-04-07 13:02 38.84085 -33.96136 36568 ft 480 kts 238°
2026-04-07 13:02 38.80099 -34.03005 36574 ft 480 kts 238°
2026-04-07 13:03 38.76113 -34.09860 36564 ft 479 kts 238°
2026-04-07 13:03 38.72128 -34.16697 36568 ft 479 kts 238°
2026-04-07 13:04 38.68168 -34.23477 36573 ft 478 kts 238°
2026-04-07 13:04 38.64180 -34.30292 36568 ft 478 kts 237°
2026-04-07 13:05 38.60187 -34.37101 36575 ft 478 kts 237°
2026-04-07 13:05 38.56193 -34.43897 36572 ft 478 kts 237°
2026-04-07 13:06 38.52198 -34.50679 36572 ft 478 kts 237°
2026-04-07 13:06 38.48226 -34.57411 36575 ft 478 kts 237°
2026-04-07 13:07 38.44224 -34.64177 36569 ft 478 kts 237°
2026-04-07 13:07 38.40220 -34.70935 36567 ft 478 kts 237°
2026-04-07 13:08 38.36210 -34.77687 36580 ft 477 kts 237°
2026-04-07 13:08 38.32198 -34.84428 36580 ft 477 kts 237°
2026-04-07 13:09 38.28211 -34.91114 36572 ft 477 kts 237°
2026-04-07 13:09 38.24196 -34.97833 36577 ft 477 kts 236°
2026-04-07 13:10 38.20177 -35.04546 36581 ft 477 kts 236°
2026-04-07 13:10 38.16158 -35.11243 36581 ft 477 kts 236°
2026-04-07 13:11 38.12162 -35.17891 36580 ft 476 kts 236°
2026-04-07 13:11 38.08136 -35.24574 36582 ft 476 kts 236°
2026-04-07 13:12 38.04109 -35.31243 36579 ft 476 kts 236°
2026-04-07 13:12 38.00080 -35.37904 36584 ft 476 kts 236°
2026-04-07 13:13 37.96047 -35.44558 36586 ft 476 kts 236°
2026-04-07 13:13 37.92038 -35.51158 36585 ft 476 kts 235°
2026-04-07 13:14 37.87999 -35.57794 36589 ft 476 kts 235°
2026-04-07 13:14 37.83958 -35.64421 36588 ft 476 kts 235°
2026-04-07 13:15 37.79914 -35.71039 36586 ft 475 kts 235°
2026-04-07 13:15 37.75895 -35.77603 36587 ft 475 kts 235°
2026-04-07 13:16 37.71845 -35.84204 36587 ft 475 kts 234°
2026-04-07 13:16 37.67791 -35.90800 36586 ft 475 kts 234°
2026-04-07 13:17 37.63733 -35.97388 36590 ft 475 kts 234°
2026-04-07 13:17 37.59675 -36.03962 36590 ft 475 kts 234°
2026-04-07 13:18 37.55639 -36.10489 36588 ft 475 kts 234°
2026-04-07 13:18 37.51574 -36.17050 36591 ft 475 kts 234°
2026-04-07 13:19 37.47504 -36.23605 36589 ft 475 kts 234°
2026-04-07 13:19 37.43434 -36.30147 36589 ft 475 kts 234°
2026-04-07 13:20 37.39388 -36.36638 36589 ft 475 kts 234°
2026-04-07 13:20 37.35309 -36.43169 36589 ft 475 kts 234°
2026-04-07 13:21 37.31228 -36.49691 36591 ft 475 kts 233°
2026-04-07 13:21 37.27145 -36.56203 36589 ft 475 kts 233°
2026-04-07 13:22 37.23083 -36.62668 36588 ft 475 kts 233°
2026-04-07 13:22 37.18992 -36.69167 36589 ft 475 kts 233°
2026-04-07 13:23 37.14899 -36.75657 36590 ft 474 kts 233°
2026-04-07 13:23 37.10804 -36.82138 36589 ft 474 kts 233°
2026-04-07 13:24 37.06730 -36.88572 36589 ft 474 kts 233°
2026-04-07 13:24 37.02629 -36.95037 36590 ft 474 kts 233°
2026-04-07 13:25 36.98524 -37.01496 36590 ft 474 kts 233°
2026-04-07 13:25 36.94418 -37.07943 36590 ft 474 kts 233°
2026-04-07 13:26 36.90335 -37.14343 36590 ft 474 kts 233°
2026-04-07 13:26 36.86223 -37.20775 36593 ft 474 kts 232°
2026-04-07 13:27 36.82106 -37.27203 36593 ft 474 kts 232°
2026-04-07 13:27 36.77988 -37.33620 36591 ft 474 kts 232°
2026-04-07 13:28 36.73864 -37.40034 36592 ft 474 kts 232°
2026-04-07 13:28 36.69767 -37.46395 36590 ft 474 kts 232°
2026-04-07 13:29 36.65638 -37.52793 36590 ft 474 kts 232°
2026-04-07 13:29 36.61506 -37.59182 36590 ft 474 kts 232°
2026-04-07 13:30 36.57373 -37.65562 36588 ft 474 kts 232°
2026-04-07 13:30 36.53264 -37.71892 36588 ft 473 kts 232°
2026-04-07 13:31 36.49124 -37.78259 36589 ft 473 kts 232°
2026-04-07 13:31 36.44980 -37.84619 36589 ft 473 kts 232°
2026-04-07 13:32 36.40836 -37.90967 36589 ft 473 kts 232°
2026-04-07 13:32 36.36718 -37.97265 36590 ft 473 kts 231°
2026-04-07 13:33 36.32569 -38.03597 36592 ft 473 kts 231°
2026-04-07 13:33 36.26348 -38.13070 36588 ft 472 kts 231°
2026-04-07 13:34 36.22200 -38.19372 36586 ft 472 kts 231°
2026-04-07 13:34 36.18079 -38.25621 36585 ft 471 kts 231°
2026-04-07 13:35 36.13930 -38.31900 36589 ft 471 kts 231°
2026-04-07 13:35 36.09783 -38.38166 36589 ft 471 kts 231°
2026-04-07 13:36 36.05633 -38.44423 36588 ft 470 kts 231°
2026-04-07 13:36 36.01514 -38.50624 36587 ft 470 kts 231°
2026-04-07 13:37 35.97367 -38.56855 36585 ft 469 kts 231°
2026-04-07 13:37 35.93218 -38.63077 36584 ft 469 kts 231°
2026-04-07 13:38 35.89073 -38.69283 36586 ft 469 kts 231°
2026-04-07 13:38 35.84955 -38.75436 36584 ft 468 kts 231°
2026-04-07 13:39 35.80809 -38.81621 36585 ft 468 kts 231°
2026-04-07 13:39 35.76663 -38.87794 36585 ft 467 kts 231°
2026-04-07 13:40 35.72515 -38.93959 36585 ft 467 kts 231°
2026-04-07 13:40 35.68398 -39.00067 36583 ft 467 kts 231°
2026-04-07 13:41 35.64249 -39.06211 36582 ft 467 kts 231°
2026-04-07 13:41 35.60101 -39.12344 36582 ft 466 kts 231°
2026-04-07 13:42 35.55953 -39.18465 36579 ft 466 kts 230°
2026-04-07 13:42 35.51804 -39.24576 36579 ft 466 kts 230°
2026-04-07 13:43 35.47682 -39.30638 36576 ft 466 kts 230°
2026-04-07 13:43 35.43532 -39.36730 36574 ft 465 kts 230°
2026-04-07 13:44 35.39376 -39.42819 36575 ft 465 kts 230°
2026-04-07 13:44 35.35221 -39.48896 36573 ft 465 kts 230°
2026-04-07 13:45 35.31094 -39.54923 36571 ft 465 kts 230°
2026-04-07 13:45 35.26936 -39.60984 36570 ft 465 kts 230°
2026-04-07 13:46 35.22775 -39.67038 36574 ft 465 kts 230°
2026-04-07 13:46 35.18614 -39.73082 36575 ft 464 kts 230°
2026-04-07 13:47 35.14480 -39.79077 36570 ft 464 kts 229°
2026-04-07 13:47 35.10315 -39.85106 36569 ft 464 kts 229°
2026-04-07 13:48 35.06148 -39.91131 36571 ft 464 kts 229°
2026-04-07 13:48 35.01981 -39.97144 36585 ft 464 kts 229°
2026-04-07 13:49 34.97938 -40.03273 36584 ft 463 kts 232°
2026-04-07 13:49 34.94118 -40.09535 36570 ft 463 kts 233°
2026-04-07 13:50 34.90284 -40.15850 36569 ft 463 kts 233°
2026-04-07 13:50 34.86436 -40.22149 36564 ft 463 kts 232°
2026-04-07 13:51 34.82580 -40.28431 36576 ft 463 kts 232°
2026-04-07 13:51 34.78742 -40.34665 36564 ft 463 kts 232°
2026-04-07 13:52 34.74878 -40.40930 36559 ft 463 kts 232°
2026-04-07 13:52 34.71016 -40.47183 36560 ft 463 kts 232°
2026-04-07 13:53 34.67148 -40.53434 36581 ft 462 kts 232°
2026-04-07 13:53 34.63282 -40.59671 36561 ft 462 kts 232°
2026-04-07 13:54 34.59438 -40.65862 36565 ft 462 kts 232°
2026-04-07 13:54 34.55569 -40.72084 36562 ft 462 kts 232°
2026-04-07 13:55 34.51697 -40.78298 36563 ft 462 kts 232°
2026-04-07 13:55 34.47822 -40.84505 36562 ft 462 kts 232°
2026-04-07 13:56 34.43970 -40.90667 36561 ft 461 kts 232°
2026-04-07 13:56 34.40091 -40.96861 36563 ft 461 kts 232°
2026-04-07 13:57 34.36212 -41.03043 36559 ft 461 kts 232°
2026-04-07 13:57 34.32328 -41.09223 36558 ft 461 kts 232°
2026-04-07 13:58 34.28444 -41.15392 36555 ft 461 kts 232°
2026-04-07 13:58 34.24582 -41.21516 36553 ft 461 kts 232°
2026-04-07 13:59 34.20692 -41.27673 36551 ft 461 kts 232°
2026-04-07 13:59 34.16802 -41.33820 36549 ft 461 kts 232°
2026-04-07 14:00 34.12910 -41.39960 36549 ft 460 kts 232°
2026-04-07 14:00 34.09043 -41.46050 36550 ft 460 kts 232°
2026-04-07 14:01 34.05146 -41.52176 36551 ft 460 kts 232°
2026-04-07 14:01 34.01250 -41.58291 36550 ft 460 kts 232°
2026-04-07 14:02 33.97352 -41.64399 36551 ft 460 kts 232°
2026-04-07 14:02 33.93479 -41.70457 36548 ft 459 kts 232°
2026-04-07 14:03 33.89580 -41.76546 36564 ft 459 kts 232°
2026-04-07 14:03 33.85679 -41.82627 36546 ft 459 kts 232°
2026-04-07 14:04 33.81777 -41.88701 36542 ft 459 kts 232°
2026-04-07 14:04 33.77899 -41.94726 36543 ft 459 kts 232°
2026-04-07 14:05 33.73989 -42.00791 36541 ft 459 kts 232°
2026-04-07 14:05 33.70077 -42.06848 36540 ft 459 kts 232°
2026-04-07 14:06 33.66163 -42.12900 36537 ft 459 kts 232°
2026-04-07 14:06 33.62267 -42.18913 36535 ft 459 kts 232°
2026-04-07 14:07 33.58345 -42.24957 36538 ft 459 kts 232°
2026-04-07 14:07 33.54417 -42.31000 36534 ft 459 kts 232°
2026-04-07 14:08 33.50485 -42.37038 36534 ft 459 kts 232°
2026-04-07 14:08 33.46549 -42.43072 36535 ft 459 kts 233°
2026-04-07 14:09 33.42640 -42.49057 36535 ft 459 kts 233°
2026-04-07 14:09 33.38700 -42.55079 36531 ft 459 kts 233°
2026-04-07 14:10 33.34755 -42.61098 36527 ft 460 kts 233°
2026-04-07 14:10 33.30809 -42.67107 36525 ft 460 kts 233°
2026-04-07 14:11 33.26859 -42.73114 36520 ft 460 kts 233°
2026-04-07 14:11 33.22938 -42.79068 36525 ft 459 kts 233°
2026-04-07 14:12 33.18978 -42.85070 36533 ft 459 kts 233°
2026-04-07 14:12 33.15023 -42.91055 36527 ft 459 kts 233°
2026-04-07 14:13 33.11065 -42.97036 36530 ft 459 kts 233°
2026-04-07 14:13 33.07132 -43.02969 36528 ft 459 kts 233°
2026-04-07 14:14 33.03166 -43.08940 36526 ft 459 kts 233°
2026-04-07 14:14 32.99202 -43.14901 36523 ft 459 kts 233°
2026-04-07 14:15 32.95234 -43.20858 36521 ft 459 kts 233°
2026-04-07 14:15 32.91289 -43.26770 36516 ft 459 kts 233°
2026-04-07 14:16 32.87312 -43.32721 36520 ft 459 kts 232°
2026-04-07 14:16 32.83332 -43.38668 36513 ft 460 kts 232°
2026-04-07 14:17 32.79346 -43.44613 36509 ft 460 kts 232°
2026-04-07 14:17 32.75355 -43.50556 36512 ft 460 kts 232°
2026-04-07 14:18 32.71386 -43.56456 36512 ft 460 kts 232°
2026-04-07 14:18 32.67386 -43.62394 36515 ft 461 kts 232°
2026-04-07 14:19 32.63380 -43.68331 36507 ft 461 kts 232°
2026-04-07 14:19 32.59373 -43.74260 36504 ft 461 kts 232°
2026-04-07 14:20 32.55391 -43.80143 36504 ft 460 kts 232°
2026-04-07 14:20 32.51384 -43.86054 36504 ft 460 kts 232°
2026-04-07 14:21 32.47375 -43.91957 36504 ft 459 kts 232°
2026-04-07 14:21 32.43371 -43.97844 36503 ft 459 kts 232°
2026-04-07 14:22 32.39370 -44.03718 36497 ft 458 kts 232°
2026-04-07 14:22 32.35397 -44.09541 36501 ft 457 kts 232°
2026-04-07 14:23 32.31402 -44.15388 36495 ft 457 kts 232°
2026-04-07 14:23 32.27411 -44.21220 36495 ft 456 kts 232°
2026-04-07 14:24 32.23421 -44.27041 36497 ft 455 kts 232°
2026-04-07 14:24 32.19460 -44.32811 36494 ft 455 kts 232°
2026-04-07 14:25 32.15473 -44.38610 36491 ft 455 kts 232°
2026-04-07 14:25 32.11485 -44.44401 36488 ft 454 kts 232°
2026-04-07 14:26 32.07497 -44.50184 36493 ft 454 kts 232°
2026-04-07 14:26 32.03508 -44.55959 36490 ft 454 kts 232°
2026-04-07 14:27 31.99547 -44.61685 36488 ft 454 kts 232°
2026-04-07 14:27 31.95557 -44.67444 36487 ft 454 kts 232°
2026-04-07 14:28 31.91567 -44.73194 36488 ft 453 kts 232°
2026-04-07 14:28 31.87579 -44.78933 36485 ft 453 kts 232°
2026-04-07 14:29 31.83616 -44.84627 36484 ft 453 kts 232°
2026-04-07 14:29 31.79626 -44.90352 36479 ft 452 kts 232°
2026-04-07 14:30 31.75636 -44.96068 36477 ft 452 kts 232°
2026-04-07 14:30 31.71645 -45.01776 36484 ft 452 kts 232°
2026-04-07 14:31 31.67681 -45.07438 36479 ft 452 kts 232°
2026-04-07 14:31 31.63690 -45.13130 36480 ft 452 kts 232°
2026-04-07 14:32 31.59693 -45.18821 36480 ft 451 kts 232°
2026-04-07 14:32 31.55699 -45.24500 36475 ft 451 kts 232°
2026-04-07 14:33 31.51727 -45.30140 36474 ft 451 kts 232°
2026-04-07 14:33 31.47728 -45.35810 36473 ft 452 kts 232°
2026-04-07 14:34 31.43723 -45.41478 36469 ft 452 kts 232°
2026-04-07 14:34 31.39716 -45.47143 36469 ft 452 kts 232°
2026-04-07 14:35 31.35735 -45.52763 36471 ft 452 kts 232°
2026-04-07 14:35 31.31717 -45.58425 36469 ft 452 kts 232°
2026-04-07 14:36 31.27696 -45.64084 36470 ft 452 kts 232°
2026-04-07 14:36 31.23672 -45.69739 36466 ft 453 kts 232°
2026-04-07 14:37 31.19669 -45.75355 36465 ft 453 kts 232°
2026-04-07 14:37 31.15634 -45.81009 36466 ft 453 kts 232°
2026-04-07 14:38 31.11595 -45.86660 36463 ft 453 kts 232°
2026-04-07 14:38 31.07554 -45.92305 36464 ft 454 kts 232°
2026-04-07 14:39 31.01510 -46.00734 36460 ft 454 kts 232°
2026-04-07 14:40 30.97454 -46.06380 36457 ft 454 kts 231°
2026-04-07 14:40 30.93399 -46.12016 36457 ft 454 kts 231°
2026-04-07 14:41 30.89338 -46.17652 36454 ft 454 kts 231°
2026-04-07 14:41 30.85275 -46.23283 36457 ft 454 kts 231°
2026-04-07 14:42 30.81237 -46.28872 36456 ft 454 kts 231°
2026-04-07 14:42 30.77166 -46.34497 36455 ft 454 kts 231°
2026-04-07 14:43 30.73094 -46.40117 36451 ft 454 kts 231°
2026-04-07 14:43 30.69017 -46.45734 36453 ft 455 kts 231°
2026-04-07 14:44 30.64967 -46.51307 36448 ft 455 kts 231°
2026-04-07 14:44 30.60884 -46.56917 36450 ft 455 kts 231°
2026-04-07 14:45 30.56798 -46.62524 36447 ft 455 kts 231°
2026-04-07 14:45 30.52708 -46.68127 36449 ft 455 kts 231°
2026-04-07 14:46 30.48641 -46.73692 36447 ft 455 kts 231°
2026-04-07 14:46 30.44544 -46.79290 36448 ft 455 kts 231°
2026-04-07 14:47 30.40441 -46.84888 36445 ft 456 kts 231°
2026-04-07 14:47 30.36335 -46.90480 36443 ft 456 kts 231°
2026-04-07 14:48 30.32252 -46.96035 36444 ft 456 kts 231°
2026-04-07 14:48 30.28139 -47.01623 36438 ft 456 kts 231°
2026-04-07 14:49 30.24019 -47.07212 36438 ft 457 kts 230°
2026-04-07 14:49 30.19894 -47.12800 36436 ft 457 kts 230°
2026-04-07 14:50 30.15793 -47.18347 36440 ft 457 kts 230°
2026-04-07 14:50 30.11661 -47.23929 36436 ft 457 kts 230°
2026-04-07 14:51 30.07520 -47.29515 36437 ft 458 kts 230°
2026-04-07 14:51 30.03377 -47.35095 36430 ft 458 kts 230°
2026-04-07 14:52 29.99229 -47.40675 36433 ft 458 kts 230°
2026-04-07 14:52 29.95105 -47.46215 36433 ft 458 kts 230°
2026-04-07 14:53 29.90947 -47.51792 36429 ft 459 kts 230°
2026-04-07 14:53 29.86784 -47.57368 36428 ft 459 kts 230°
2026-04-07 14:54 29.82645 -47.62905 36428 ft 459 kts 230°
2026-04-07 14:54 29.78477 -47.68473 36428 ft 459 kts 230°
2026-04-07 14:55 29.74303 -47.74040 36427 ft 459 kts 230°
2026-04-07 14:55 29.70127 -47.79604 36429 ft 459 kts 230°
2026-04-07 14:56 29.65947 -47.85164 36422 ft 460 kts 230°
2026-04-07 14:56 29.61793 -47.90682 36426 ft 460 kts 230°
2026-04-07 14:57 29.57607 -47.96234 36422 ft 460 kts 230°
2026-04-07 14:57 29.53415 -48.01788 36419 ft 460 kts 230°
2026-04-07 14:58 29.49221 -48.07336 36415 ft 460 kts 230°
2026-04-07 14:58 29.45050 -48.12847 36416 ft 461 kts 230°
2026-04-07 14:59 29.40844 -48.18395 36412 ft 461 kts 230°
2026-04-07 14:59 29.36632 -48.23946 36412 ft 461 kts 230°
2026-04-07 15:00 29.32414 -48.29495 36413 ft 462 kts 230°
2026-04-07 15:00 29.28218 -48.35007 36413 ft 462 kts 230°
2026-04-07 15:01 29.23987 -48.40559 36411 ft 463 kts 230°
2026-04-07 15:01 29.19750 -48.46110 36405 ft 463 kts 230°
2026-04-07 15:02 29.15510 -48.51658 36407 ft 463 kts 230°
2026-04-07 15:02 29.11296 -48.57165 36410 ft 463 kts 230°
2026-04-07 15:03 29.07056 -48.62699 36403 ft 463 kts 230°
2026-04-07 15:03 29.02815 -48.68226 36403 ft 462 kts 230°
2026-04-07 15:04 28.98578 -48.73740 36407 ft 462 kts 230°
2026-04-07 15:04 28.94366 -48.79214 36391 ft 462 kts 230°
2026-04-07 15:05 28.90123 -48.84720 36394 ft 462 kts 230°
2026-04-07 15:05 28.85875 -48.90227 36396 ft 462 kts 230°
2026-04-07 15:06 28.81622 -48.95732 36393 ft 463 kts 230°
2026-04-07 15:06 28.77359 -49.01244 36397 ft 464 kts 230°
2026-04-07 15:07 28.73109 -49.06731 36394 ft 464 kts 230°
2026-04-07 15:07 28.68828 -49.12249 36388 ft 465 kts 230°
2026-04-07 15:08 28.64539 -49.17771 36385 ft 466 kts 230°
2026-04-07 15:08 28.60245 -49.23293 36388 ft 466 kts 230°
2026-04-07 15:09 28.55977 -49.28774 36388 ft 466 kts 230°
2026-04-07 15:09 28.51672 -49.34295 36389 ft 466 kts 230°
2026-04-07 15:10 28.47366 -49.39809 36385 ft 466 kts 230°
2026-04-07 15:10 28.43056 -49.45321 36384 ft 467 kts 230°
2026-04-07 15:11 28.38742 -49.50831 36382 ft 467 kts 230°
2026-04-07 15:11 28.34455 -49.56300 36382 ft 467 kts 230°
2026-04-07 15:12 28.30141 -49.61796 36381 ft 466 kts 229°
2026-04-07 15:12 28.25823 -49.67289 36376 ft 466 kts 229°
2026-04-07 15:13 28.21506 -49.72775 36375 ft 466 kts 229°
2026-04-07 15:13 28.17222 -49.78212 36375 ft 465 kts 229°
2026-04-07 15:14 28.12909 -49.83678 36372 ft 465 kts 229°
2026-04-07 15:14 28.08602 -49.89129 36370 ft 464 kts 229°
2026-04-07 15:15 28.04297 -49.94573 36374 ft 464 kts 229°
2026-04-07 15:15 28.00020 -49.99972 36371 ft 463 kts 229°
2026-04-07 15:16 27.95779 -50.05490 36544 ft 467 kts 230°
2026-04-07 15:16 27.93677 -50.08284 36841 ft 465 kts 230°
2026-04-07 15:16 27.91585 -50.11069 37173 ft 463 kts 230°
2026-04-07 15:16 27.89501 -50.13840 37517 ft 462 kts 230°
2026-04-07 15:17 27.87422 -50.16596 37820 ft 461 kts 230°
2026-04-07 15:17 27.85340 -50.19348 38099 ft 460 kts 231°
2026-04-07 15:17 27.83285 -50.22058 38276 ft 462 kts 231°
2026-04-07 15:18 27.79078 -50.27597 38358 ft 466 kts 230°
2026-04-07 15:18 27.74861 -50.33136 38351 ft 462 kts 230°
2026-04-07 15:19 27.70690 -50.38608 38358 ft 458 kts 230°
2026-04-07 15:19 27.66537 -50.44052 38361 ft 457 kts 230°
2026-04-07 15:20 27.62416 -50.49448 38353 ft 457 kts 231°
2026-04-07 15:20 27.58264 -50.54878 38356 ft 457 kts 230°
2026-04-07 15:21 27.54105 -50.60310 38361 ft 458 kts 230°
2026-04-07 15:21 27.49936 -50.65748 38360 ft 459 kts 230°
2026-04-07 15:22 27.45787 -50.71152 38356 ft 460 kts 230°
2026-04-07 15:22 27.41601 -50.76598 38351 ft 460 kts 230°
2026-04-07 15:23 27.37412 -50.82042 38353 ft 460 kts 230°
2026-04-07 15:23 27.33218 -50.87484 38350 ft 460 kts 230°
2026-04-07 15:24 27.29022 -50.92922 38346 ft 460 kts 230°
2026-04-07 15:24 27.24847 -50.98326 38349 ft 460 kts 230°
2026-04-07 15:25 27.20649 -51.03754 38350 ft 460 kts 230°
2026-04-07 15:25 27.16452 -51.09172 38348 ft 460 kts 230°
2026-04-07 15:26 27.12254 -51.14587 38344 ft 460 kts 230°
2026-04-07 15:26 27.08083 -51.19958 38341 ft 459 kts 230°
2026-04-07 15:27 27.03884 -51.25361 38338 ft 459 kts 230°
2026-04-07 15:27 26.99685 -51.30756 38337 ft 459 kts 230°
2026-04-07 15:28 26.96195 -51.35235 38336 ft 459 kts 230°
2026-04-07 15:28 26.91994 -51.40620 38335 ft 459 kts 230°
2026-04-07 15:29 26.87108 -51.46876 38332 ft 459 kts 230°
2026-04-07 15:29 26.82901 -51.52255 38330 ft 459 kts 230°
2026-04-07 15:30 26.79401 -51.56724 38331 ft 459 kts 230°
2026-04-07 15:30 26.75187 -51.62099 38333 ft 459 kts 230°
2026-04-07 15:31 26.70285 -51.68345 38326 ft 460 kts 230°
2026-04-07 15:31 26.66750 -51.72844 38330 ft 460 kts 230°
2026-04-07 15:32 26.62553 -51.78178 38323 ft 460 kts 230°
2026-04-07 15:32 26.58325 -51.83545 38324 ft 460 kts 230°
2026-04-07 15:33 26.54093 -51.88911 38323 ft 460 kts 230°
2026-04-07 15:33 26.49858 -51.94275 38319 ft 460 kts 230°
2026-04-07 15:34 26.45646 -51.99602 38318 ft 461 kts 230°
2026-04-07 15:34 26.41402 -52.04963 38319 ft 461 kts 230°
2026-04-07 15:35 26.37157 -52.10321 38315 ft 461 kts 230°
2026-04-07 15:35 26.32903 -52.15681 38314 ft 461 kts 230°
2026-04-07 15:36 26.28677 -52.21001 38324 ft 462 kts 230°
2026-04-07 15:36 26.24413 -52.26362 38319 ft 462 kts 230°
2026-04-07 15:37 26.20144 -52.31723 38320 ft 463 kts 230°
2026-04-07 15:37 26.15872 -52.37081 38314 ft 463 kts 230°
2026-04-07 15:38 26.11619 -52.42410 38297 ft 464 kts 230°
2026-04-07 15:38 26.07333 -52.47772 38310 ft 464 kts 230°
2026-04-07 15:39 26.03043 -52.53134 38307 ft 464 kts 230°
2026-04-07 15:39 25.98749 -52.58495 38295 ft 464 kts 230°
2026-04-07 15:40 25.94477 -52.63821 38307 ft 465 kts 230°
2026-04-07 15:40 25.90175 -52.69179 38296 ft 465 kts 230°
2026-04-07 15:41 25.85868 -52.74536 38302 ft 465 kts 230°
2026-04-07 15:41 25.81555 -52.79894 38299 ft 465 kts 230°
2026-04-07 15:42 25.77270 -52.85211 38296 ft 466 kts 230°
2026-04-07 15:42 25.70789 -52.93242 38294 ft 466 kts 230°
2026-04-07 15:43 25.66461 -52.98597 38292 ft 466 kts 230°
2026-04-07 15:43 25.62130 -53.03949 38289 ft 467 kts 230°
2026-04-07 15:44 25.57823 -53.09266 38289 ft 467 kts 230°
2026-04-07 15:44 25.53480 -53.14620 38285 ft 467 kts 230°
2026-04-07 15:45 25.49135 -53.19971 38289 ft 467 kts 230°
2026-04-07 15:45 25.44787 -53.25319 38284 ft 467 kts 230°
2026-04-07 15:46 25.40466 -53.30628 38286 ft 467 kts 230°
2026-04-07 15:46 25.36115 -53.35967 38281 ft 467 kts 230°
2026-04-07 15:47 25.31762 -53.41303 38283 ft 467 kts 230°
2026-04-07 15:47 25.27405 -53.46638 38281 ft 467 kts 230°
2026-04-07 15:48 25.23077 -53.51932 38277 ft 467 kts 230°
2026-04-07 15:48 25.18718 -53.57255 38277 ft 467 kts 230°
2026-04-07 15:49 25.14359 -53.62574 38275 ft 467 kts 230°
2026-04-07 15:49 25.09997 -53.67890 38273 ft 467 kts 230°
2026-04-07 15:50 25.05664 -53.73165 38271 ft 467 kts 230°
2026-04-07 15:50 25.01302 -53.78469 38269 ft 467 kts 230°
2026-04-07 15:51 24.96937 -53.83771 38268 ft 467 kts 230°
2026-04-07 15:51 24.92569 -53.89070 38268 ft 467 kts 230°
2026-04-07 15:52 24.88228 -53.94330 38266 ft 467 kts 230°
2026-04-07 15:52 24.83859 -53.99618 38263 ft 467 kts 230°
2026-04-07 15:53 24.79487 -54.04905 38265 ft 467 kts 230°
2026-04-07 15:53 24.75115 -54.10184 38259 ft 467 kts 230°
2026-04-07 15:54 24.70744 -54.15458 38260 ft 466 kts 230°
2026-04-07 15:54 24.66401 -54.20691 38262 ft 466 kts 230°
2026-04-07 15:55 24.62028 -54.25954 38257 ft 466 kts 230°
2026-04-07 15:55 24.57657 -54.31209 38255 ft 466 kts 230°
2026-04-07 15:56 24.53283 -54.36462 38256 ft 466 kts 230°
2026-04-07 15:56 24.48914 -54.41704 38252 ft 465 kts 230°
2026-04-07 15:57 24.44567 -54.46913 38250 ft 465 kts 230°
2026-04-07 15:57 24.40194 -54.52148 38251 ft 465 kts 230°
2026-04-07 15:58 24.35819 -54.57379 38248 ft 465 kts 230°
2026-04-07 15:58 24.31442 -54.62606 38251 ft 465 kts 230°
2026-04-07 15:59 24.27095 -54.67793 38246 ft 465 kts 230°
2026-04-07 15:59 24.22712 -54.73017 38243 ft 466 kts 230°
2026-04-07 16:00 24.18325 -54.78240 38243 ft 466 kts 229°
2026-04-07 16:00 24.13929 -54.83468 38244 ft 467 kts 229°
2026-04-07 16:01 24.09555 -54.88664 38241 ft 467 kts 229°
2026-04-07 16:01 24.05148 -54.93896 38242 ft 468 kts 229°
2026-04-07 16:02 24.00730 -54.99133 38239 ft 468 kts 229°
2026-04-07 16:02 23.96120 -55.04179 38234 ft 470 kts 226°
2026-04-07 16:03 23.91389 -55.09107 38239 ft 470 kts 225°
2026-04-07 16:03 23.86684 -55.14001 38241 ft 470 kts 226°
2026-04-07 16:04 23.81959 -55.18940 38229 ft 470 kts 226°
2026-04-07 16:04 23.77235 -55.23889 38241 ft 470 kts 226°
2026-04-07 16:05 23.72511 -55.28836 38233 ft 470 kts 226°
2026-04-07 16:05 23.67819 -55.33743 38237 ft 470 kts 226°
2026-04-07 16:06 23.63095 -55.38678 38225 ft 470 kts 226°
2026-04-07 16:06 23.58364 -55.43613 38220 ft 470 kts 226°
2026-04-07 16:07 23.53637 -55.48541 38226 ft 470 kts 226°
2026-04-07 16:07 23.48940 -55.53432 38220 ft 470 kts 226°
2026-04-07 16:08 23.44213 -55.58349 38221 ft 470 kts 226°
2026-04-07 16:08 23.39483 -55.63263 38220 ft 470 kts 226°
2026-04-07 16:09 23.34753 -55.68173 38222 ft 470 kts 226°
2026-04-07 16:09 23.30053 -55.73047 38221 ft 470 kts 226°
2026-04-07 16:10 23.25319 -55.77951 38219 ft 470 kts 226°
2026-04-07 16:10 23.20581 -55.82853 38218 ft 470 kts 226°
2026-04-07 16:11 23.15843 -55.87751 38214 ft 470 kts 226°
2026-04-07 16:11 23.11138 -55.92610 38219 ft 470 kts 226°
2026-04-07 16:12 23.06400 -55.97498 38214 ft 470 kts 226°
2026-04-07 16:12 23.01663 -56.02380 38211 ft 469 kts 226°
2026-04-07 16:13 22.96930 -56.07252 38214 ft 469 kts 226°
2026-04-07 16:13 22.92234 -56.12082 38211 ft 468 kts 226°
2026-04-07 16:14 22.87513 -56.16932 38210 ft 467 kts 226°
2026-04-07 16:14 22.82797 -56.21773 38208 ft 467 kts 226°
2026-04-07 16:15 22.78085 -56.26604 38206 ft 466 kts 226°
2026-04-07 16:15 22.73379 -56.31425 38206 ft 465 kts 226°
2026-04-07 16:16 22.68707 -56.36206 38205 ft 465 kts 226°
2026-04-07 16:16 22.64004 -56.41015 38197 ft 465 kts 226°
2026-04-07 16:17 22.59301 -56.45817 38197 ft 465 kts 226°
2026-04-07 16:17 22.54600 -56.50614 38198 ft 465 kts 226°
2026-04-07 16:18 22.49927 -56.55378 38194 ft 465 kts 226°
2026-04-07 16:18 22.45220 -56.60171 38193 ft 465 kts 226°
2026-04-07 16:19 22.40514 -56.64958 38192 ft 465 kts 226°
2026-04-07 16:19 22.35807 -56.69742 38191 ft 465 kts 226°
2026-04-07 16:20 22.31130 -56.74491 38189 ft 465 kts 226°
2026-04-07 16:20 22.26418 -56.79271 38190 ft 464 kts 226°
2026-04-07 16:21 22.21711 -56.84041 38190 ft 464 kts 226°
2026-04-07 16:21 22.17004 -56.88805 38190 ft 464 kts 226°
2026-04-07 16:22 22.12331 -56.93532 38188 ft 463 kts 226°
2026-04-07 16:22 22.07629 -56.98283 38181 ft 463 kts 226°
2026-04-07 16:23 22.02932 -57.03025 38180 ft 463 kts 226°
2026-04-07 16:23 21.98234 -57.07763 38183 ft 462 kts 226°
2026-04-07 16:24 21.93570 -57.12462 38183 ft 462 kts 226°
2026-04-07 16:24 21.88879 -57.17184 38176 ft 462 kts 226°
2026-04-07 16:25 21.84188 -57.21902 38172 ft 461 kts 226°
2026-04-07 16:25 21.79496 -57.26616 38173 ft 461 kts 226°
2026-04-07 16:26 21.74806 -57.31324 38168 ft 461 kts 226°
2026-04-07 16:26 21.70150 -57.35993 38186 ft 461 kts 226°
2026-04-07 16:27 21.65460 -57.40693 38174 ft 461 kts 226°
2026-04-07 16:27 21.60773 -57.45384 38178 ft 460 kts 226°
2026-04-07 16:28 21.56088 -57.50069 38179 ft 460 kts 227°
2026-04-07 16:28 21.51433 -57.54720 38176 ft 460 kts 227°
2026-04-07 16:29 21.46750 -57.59395 38154 ft 459 kts 227°
2026-04-07 16:29 21.42078 -57.64054 38158 ft 458 kts 227°
2026-04-07 16:30 21.37413 -57.68702 38168 ft 457 kts 227°
2026-04-07 16:30 21.32790 -57.73303 38161 ft 456 kts 227°
2026-04-07 16:31 21.28140 -57.77928 38159 ft 455 kts 227°
2026-04-07 16:31 21.23500 -57.82539 38160 ft 455 kts 227°
2026-04-07 16:32 21.18866 -57.87140 38159 ft 454 kts 227°
2026-04-07 16:32 21.14236 -57.91733 38159 ft 453 kts 227°
2026-04-07 16:33 21.09644 -57.96283 38158 ft 452 kts 227°
2026-04-07 16:33 21.05026 -58.00855 38156 ft 452 kts 227°
2026-04-07 16:34 21.00413 -58.05420 38158 ft 451 kts 227°
2026-04-07 16:34 20.95800 -58.09979 38153 ft 451 kts 227°
2026-04-07 16:35 20.91221 -58.14501 38152 ft 451 kts 227°
2026-04-07 16:35 20.86615 -58.19046 38154 ft 451 kts 227°
2026-04-07 16:36 20.82007 -58.23589 38150 ft 450 kts 227°
2026-04-07 16:36 20.77402 -58.28124 38148 ft 450 kts 227°
2026-04-07 16:37 20.72798 -58.32654 38152 ft 450 kts 227°
2026-04-07 16:37 20.68196 -58.37180 38146 ft 449 kts 227°
2026-04-07 16:38 20.63628 -58.41667 38141 ft 449 kts 227°
2026-04-07 16:38 20.59028 -58.46182 38146 ft 449 kts 227°
2026-04-07 16:39 20.54430 -58.50692 38159 ft 449 kts 227°
2026-04-07 16:39 20.49836 -58.55194 38141 ft 449 kts 227°
2026-04-07 16:40 20.45272 -58.59662 38134 ft 448 kts 228°
2026-04-07 16:40 20.40674 -58.64159 38129 ft 448 kts 228°
2026-04-07 16:41 20.36083 -58.68647 38142 ft 448 kts 228°
2026-04-07 16:41 20.31493 -58.73129 38144 ft 447 kts 228°
2026-04-07 16:42 20.26935 -58.77577 38141 ft 447 kts 228°
2026-04-07 16:42 20.22350 -58.82046 38137 ft 447 kts 228°
2026-04-07 16:43 20.17771 -58.86507 38137 ft 446 kts 228°
2026-04-07 16:43 20.13196 -58.90960 38138 ft 445 kts 228°
2026-04-07 16:44 20.08651 -58.95380 38132 ft 445 kts 228°
2026-04-07 16:44 20.04087 -58.99815 38136 ft 445 kts 228°
2026-04-07 16:45 19.99522 -59.04247 38129 ft 444 kts 228°
2026-04-07 16:45 19.94956 -59.08677 38132 ft 444 kts 228°
2026-04-07 16:46 19.90397 -59.13095 38128 ft 444 kts 228°
2026-04-07 16:46 19.85869 -59.17481 38130 ft 443 kts 228°
2026-04-07 16:47 19.81312 -59.21891 38126 ft 443 kts 229°
2026-04-07 16:47 19.76757 -59.26295 38127 ft 443 kts 229°
2026-04-07 16:48 19.72204 -59.30694 38122 ft 442 kts 229°
2026-04-07 16:49 19.65408 -59.37254 38119 ft 442 kts 229°
2026-04-07 16:49 19.60860 -59.41640 38124 ft 442 kts 229°
2026-04-07 16:50 19.56310 -59.46024 38121 ft 442 kts 229°
2026-04-07 16:50 19.51765 -59.50400 38120 ft 441 kts 229°
2026-04-07 16:51 19.47253 -59.54741 38121 ft 441 kts 229°
2026-04-07 16:51 19.42710 -59.59107 38112 ft 441 kts 229°
2026-04-07 16:52 19.38172 -59.63466 38119 ft 440 kts 229°
2026-04-07 16:52 19.33636 -59.67819 38118 ft 440 kts 229°
2026-04-07 16:53 19.29099 -59.72170 38117 ft 440 kts 229°
2026-04-07 16:53 19.24595 -59.76486 38112 ft 440 kts 229°
2026-04-07 16:54 19.20063 -59.80825 38113 ft 439 kts 229°
2026-04-07 16:54 19.15529 -59.85163 38112 ft 439 kts 229°
2026-04-07 16:55 19.10995 -59.89498 38106 ft 439 kts 229°
2026-04-07 16:55 19.06492 -59.93801 38109 ft 439 kts 229°
2026-04-07 16:56 19.01956 -59.98132 38107 ft 439 kts 229°
2026-04-07 16:56 18.97453 -60.02493 38111 ft 438 kts 230°
2026-04-07 16:57 18.93053 -60.06942 38105 ft 438 kts 230°
2026-04-07 16:57 18.88690 -60.11371 38102 ft 438 kts 230°
2026-04-07 16:58 18.84281 -60.15823 38104 ft 438 kts 230°
2026-04-07 16:58 18.79866 -60.20266 38100 ft 439 kts 230°
2026-04-07 16:59 18.75445 -60.24707 38095 ft 439 kts 230°
2026-04-07 16:59 18.71048 -60.29120 38103 ft 439 kts 230°
2026-04-07 17:00 18.66622 -60.33559 38098 ft 439 kts 230°
2026-04-07 17:00 18.62192 -60.38000 38099 ft 439 kts 230°
2026-04-07 17:01 18.57760 -60.42440 38097 ft 440 kts 230°
2026-04-07 17:01 18.53356 -60.46848 38095 ft 440 kts 230°
2026-04-07 17:02 18.48920 -60.51284 38096 ft 440 kts 230°
2026-04-07 17:02 18.44482 -60.55720 38091 ft 438 kts 230°
2026-04-07 17:02 18.42290 -60.57904 37735 ft 432 kts 230°
2026-04-07 17:03 18.40111 -60.60078 37109 ft 428 kts 230°
2026-04-07 17:03 18.37965 -60.62217 36591 ft 422 kts 230°
2026-04-07 17:03 18.35845 -60.64330 36068 ft 417 kts 230°
2026-04-07 17:03 18.33752 -60.66419 35539 ft 414 kts 230°
2026-04-07 17:04 18.31697 -60.68470 35007 ft 411 kts 230°
2026-04-07 17:04 18.29628 -60.70533 34474 ft 408 kts 229°
2026-04-07 17:04 18.27574 -60.72582 33949 ft 406 kts 229°
2026-04-07 17:04 18.25533 -60.74614 33407 ft 402 kts 229°
2026-04-07 17:05 18.23514 -60.76625 32933 ft 397 kts 229°
2026-04-07 17:05 18.21516 -60.78613 32464 ft 393 kts 229°
2026-04-07 17:05 18.19538 -60.80581 31980 ft 390 kts 229°
2026-04-07 17:05 18.17577 -60.82533 31537 ft 386 kts 229°
2026-04-07 17:06 18.15634 -60.84466 31082 ft 383 kts 229°
2026-04-07 17:06 18.13702 -60.86388 30626 ft 382 kts 228°
2026-04-07 17:06 18.11789 -60.88292 30199 ft 388 kts 228°
2026-04-07 17:06 18.09801 -60.90273 29634 ft 399 kts 228°
2026-04-07 17:07 18.07778 -60.92284 29076 ft 399 kts 227°
2026-04-07 17:07 18.05768 -60.94276 28537 ft 396 kts 227°
2026-04-07 17:07 18.03776 -60.96251 28026 ft 392 kts 227°
2026-04-07 17:07 18.01804 -60.98206 27515 ft 388 kts 227°
2026-04-07 17:08 17.99821 -61.00122 27043 ft 386 kts 224°
2026-04-07 17:08 17.97708 -61.01853 26572 ft 384 kts 220°
2026-04-07 17:08 17.95568 -61.03522 26108 ft 382 kts 220°
2026-04-07 17:08 17.93466 -61.05151 25651 ft 380 kts 220°
2026-04-07 17:09 17.91348 -61.06794 25204 ft 377 kts 220°
2026-04-07 17:09 17.89245 -61.08428 24752 ft 375 kts 220°
2026-04-07 17:09 17.87154 -61.10057 24299 ft 374 kts 220°
2026-04-07 17:09 17.85069 -61.11684 23841 ft 373 kts 219°
2026-04-07 17:10 17.82994 -61.13305 23349 ft 371 kts 219°
2026-04-07 17:10 17.80929 -61.14918 22870 ft 369 kts 219°
2026-04-07 17:10 17.78910 -61.16495 22418 ft 365 kts 219°
2026-04-07 17:10 17.76878 -61.18082 21989 ft 362 kts 219°
2026-04-07 17:11 17.74868 -61.19651 21569 ft 359 kts 219°
2026-04-07 17:11 17.72875 -61.21207 21154 ft 356 kts 219°
2026-04-07 17:11 17.70897 -61.22751 20739 ft 353 kts 219°
2026-04-07 17:11 17.68936 -61.24282 20328 ft 350 kts 219°
2026-04-07 17:12 17.66991 -61.25800 19924 ft 348 kts 219°
2026-04-07 17:12 17.65056 -61.27309 19515 ft 345 kts 219°
2026-04-07 17:12 17.63159 -61.28788 19106 ft 344 kts 219°
2026-04-07 17:12 17.61247 -61.30279 18699 ft 342 kts 219°
2026-04-07 17:13 17.59342 -61.31764 18259 ft 341 kts 218°
2026-04-07 17:13 17.57443 -61.33243 17791 ft 339 kts 218°
2026-04-07 17:13 17.55558 -61.34712 17363 ft 336 kts 218°
2026-04-07 17:13 17.53687 -61.36168 16948 ft 334 kts 218°
2026-04-07 17:14 17.51829 -61.37614 16542 ft 332 kts 218°
2026-04-07 17:14 17.49982 -61.39052 16129 ft 330 kts 218°
2026-04-07 17:14 17.48148 -61.40479 15713 ft 328 kts 219°
2026-04-07 17:14 17.46348 -61.41879 15310 ft 326 kts 219°
2026-04-07 17:15 17.44530 -61.43292 14908 ft 325 kts 219°
2026-04-07 17:15 17.42720 -61.44700 14499 ft 323 kts 219°
2026-04-07 17:15 17.40916 -61.46102 14082 ft 323 kts 219°
2026-04-07 17:15 17.39115 -61.47502 13641 ft 322 kts 219°
2026-04-07 17:16 17.37323 -61.48895 13214 ft 320 kts 219°
2026-04-07 17:16 17.35542 -61.50278 12792 ft 318 kts 219°
2026-04-07 17:16 17.33797 -61.51633 12368 ft 316 kts 219°
2026-04-07 17:16 17.32042 -61.52995 11980 ft 313 kts 218°
2026-04-07 17:17 17.30299 -61.54348 11589 ft 311 kts 218°
2026-04-07 17:17 17.28570 -61.55690 11194 ft 308 kts 218°
2026-04-07 17:17 17.26855 -61.57019 10819 ft 306 kts 218°
2026-04-07 17:17 17.25152 -61.58340 10492 ft 302 kts 218°
2026-04-07 17:18 17.23493 -61.59627 10338 ft 292 kts 218°
2026-04-07 17:18 17.21886 -61.60872 10206 ft 282 kts 218°
2026-04-07 17:18 17.20329 -61.62079 10046 ft 274 kts 218°
2026-04-07 17:18 17.18823 -61.63248 9744 ft 272 kts 218°
2026-04-07 17:19 17.17306 -61.64423 9439 ft 270 kts 217°
2026-04-07 17:19 17.15800 -61.65591 9144 ft 268 kts 217°
2026-04-07 17:19 17.14306 -61.66749 8830 ft 267 kts 217°
2026-04-07 17:19 17.12818 -61.67902 8530 ft 265 kts 217°
2026-04-07 17:20 17.11337 -61.69049 8231 ft 265 kts 217°
2026-04-07 17:20 17.09861 -61.70191 7944 ft 264 kts 217°
2026-04-07 17:20 17.08387 -61.71332 7651 ft 264 kts 217°
2026-04-07 17:20 17.06911 -61.72474 7354 ft 264 kts 216°
2026-04-07 17:21 17.05462 -61.73602 7061 ft 261 kts 219°
2026-04-07 17:21 17.04264 -61.75018 6778 ft 265 kts 236°
2026-04-07 17:21 17.03292 -61.76695 6473 ft 274 kts 239°
2026-04-07 17:21 17.02325 -61.78427 6130 ft 277 kts 238°
2026-04-07 17:22 17.01337 -61.80150 5802 ft 277 kts 237°
2026-04-07 17:22 17.00331 -61.81869 5466 ft 277 kts 236°
2026-04-07 17:22 16.99323 -61.83579 5151 ft 276 kts 236°
2026-04-07 17:22 16.98314 -61.85287 4814 ft 276 kts 235°
2026-04-07 17:23 16.97317 -61.86969 4492 ft 276 kts 235°
2026-04-07 17:23 16.96520 -61.88758 4136 ft 274 kts 257°
2026-04-07 17:23 16.96603 -61.90731 3833 ft 276 kts 287°
2026-04-07 17:23 16.97562 -61.92438 3643 ft 271 kts 314°
2026-04-07 17:24 16.99014 -61.93601 3489 ft 258 kts 331°
2026-04-07 17:24 17.00521 -61.94554 3369 ft 248 kts 333°
2026-04-07 17:24 17.02062 -61.95141 3242 ft 228 kts
2026-04-07 17:24 17.03528 -61.94857 3178 ft 204 kts 30°
2026-04-07 17:25 17.04697 -61.94117 3024 ft 191 kts 44°
2026-04-07 17:25 17.05498 -61.93134 2824 ft 173 kts 62°
2026-04-07 17:25 17.06121 -61.92088 2648 ft 172 kts 63°
2026-04-07 17:25 17.06748 -61.91014 2433 ft 171 kts 61°
2026-04-07 17:26 17.07362 -61.89970 2189 ft 166 kts 62°
2026-04-07 17:26 17.07961 -61.88948 1994 ft 165 kts 62°
2026-04-07 17:26 17.08572 -61.87898 1795 ft 173 kts 62°
2026-04-07 17:26 17.09198 -61.86839 1529 ft 166 kts 63°
2026-04-07 17:27 17.09797 -61.85833 1373 ft 165 kts 63°
2026-04-07 17:27 17.10412 -61.84775 1140 ft 171 kts 62°
2026-04-07 17:27 17.11027 -61.83751 989 ft 161 kts 60°
2026-04-07 17:27 17.11609 -61.82813 686 ft 147 kts 61°
2026-04-07 17:28 17.12119 -61.81914 478 ft 141 kts 62°
2026-04-07 17:28 17.12621 -61.81060 303 ft 136 kts 63°
2026-04-07 17:28 17.13111 -61.80224 110 ft 135 kts 62°
2026-04-07 17:28 17.13576 -61.79433 65 ft 116 kts 59°
2026-04-07 17:29 17.13915 -61.78854 60 ft 60 kts 59°
2026-04-07 17:29 17.14015 -61.78684 64 ft 13 kts 58°
2026-04-07 17:29 17.14062 -61.78652 63 ft 7 kts 354°
2026-04-07 17:29 17.14093 -61.78691 64 ft 8 kts 285°
2026-04-07 17:30 17.14103 -61.78752 64 ft 9 kts 278°
2026-04-07 17:30 17.14110 -61.78823 63 ft 11 kts 272°
2026-04-07 17:30 17.14080 -61.78905 60 ft 12 kts 240°
2026-04-07 17:30 17.14044 -61.78965 59 ft 6 kts 237°
2026-04-07 17:31 17.14035 -61.78991 62 ft 3 kts 271°
2026-04-07 17:31 17.14050 -61.79007 61 ft 4 kts 338°
2026-04-07 17:31 17.14076 -61.79021 61 ft 4 kts 329°
2026-04-07 17:31 17.14090 -61.79030 61 ft 1 kts 328°
2026-04-07 17:32 17.14096 -61.79034 62 ft 0 kts 329°